Regional Weather Roundup
Issued by NWS Sterling, VA

Home | Current Version | Previous Version | Graphics & Text | Print | Product List | Glossary On
Versions: 1 2 3 4 5 6 7 8 9 10 11 12 13 14 15 16 17 18 19 20 21 22 23 24 25 26 27 28 29 30 31 32 33 34 35 36 37 38 39 40 41 42 43 44 45 46 47 48 49 50
000
ASUS41 KLWX 230010
RWRLWX

REGIONAL WEATHER ROUNDUP
NATIONAL WEATHER SERVICE BALTIMORE MD/WASHINGTON DC
700 PM EST SAT NOV 22 2014

Note: "FAIR" indicates few or no clouds below 12,000 feet
with no significant weather and/or obstructions to visibility.
 TC=TEMPERATURE CELSIUS

 * =Non NWS site. Station does not report precipitation (e.g. rain,
    snow, etc.), thunder, or fog.

DCZ001-MDZ009-015-VAZ040>042-051-053>054-230100-
WASHINGTON METRO

CITY           SKY/WX    TMP DP  RH WIND       PRES   REMARKS
WASHINGTON NAT CLEAR     45  18  34 S9        30.31F
DULLES         PTCLDY    42  16  34 S8        30.29S
ANDREWS AFB    CLEAR     41  17  38 SW8       30.30S
FT BELVOIR     CLEAR     39  20  46 S2        30.31F
QUANTICO       CLEAR     44  25  47 SW5       30.32F
COLLEGE PARK*  CLEAR     45  18  33 CALM      30.30S
LEESBURG*      PTCLDY    43  21  42 S12       30.28F
MANASSAS*      CLEAR     39  18  41 S3        30.30S
GAITHERSBURG*  CLEAR     43  16  33 S6        30.31F

$$

MDZ006>007-011-014-230100-
BALTIMORE METRO

CITY           SKY/WX    TMP DP  RH WIND       PRES   REMARKS
BWI AIRPORT    PTCLDY    43  15  32 SW6       30.29S
MD SCIENCE CTR   N/A     46  15  28 MISG      30.30S
MARTIN STATE   CLEAR     45  25  45 S6        30.31S
ANNAPOLIS      CLEAR     43  17  35 S3        30.31S
FORT MEADE*    CLEAR     36  18  48 S3        30.32S

$$

MDZ012-015-019>023-230100-
MARYLAND EASTERN SHORE

CITY           SKY/WX    TMP DP  RH WIND       PRES   REMARKS
OCEAN CITY     CLEAR     41  29  62 SW8       30.35F
SALISBURY      FAIR      39  24  55 S6        30.34F
BAY BRIDGE AP*   N/A     45  21  39 S7        30.31S
CAMBRIDGE*     CLEAR     37  28  70 CALM      30.33R

$$

MDZ017>025-230100-
SOUTHERN MARYLAND

CITY           SKY/WX    TMP DP  RH WIND       PRES   REMARKS
PATUXENT RIVER CLEAR     44  18  35 SW9       30.33S
ST INIGOES     CLEAR     45  18  34 S9        30.33F
LEONARDTOWN*   CLEAR     43  18  36 SW6       30.34S

$$

MDZ003>005-230100-
NORTH CENTRAL MARYLAND

CITY           SKY/WX    TMP DP  RH WIND       PRES   REMARKS
FREDERICK*     CLEAR     48  10  21 S10       30.29S
HAGERSTOWN APT PTCLDY    43  17  35 CALM      30.23F
WESTMINSTER*   NOT AVBL

$$

MDZ501>502-230100-
WESTERN MARYLAND

CITY           SKY/WX    TMP DP  RH WIND       PRES   REMARKS
OAKLAND*       CLOUDY    45  27  49 S10       30.17F
CUMBERLAND*    PTCLDY    37  19  48 CALM      30.25S

$$

VAZ025>031-230100-
SHENANDOAH VALLEY

CITY           SKY/WX    TMP DP  RH WIND       PRES   REMARKS
WINCHESTER*    CLOUDY    43  12  28 S3        30.22F
FRONT ROYAL*   CLOUDY    43  23  45 CALM      30.23S
LURAY*         MOCLDY    48  23  37 SW10      30.24S
NEW MARKET*    MOCLDY    42  22  45 SW6       30.24S
STAUNTON*      CLEAR     42  16  35 S5        30.27F
WAYNESBORO*    FAIR      40  17  39 S5        30.26F

$$

WVZ021-048>050-054>055-230100-
EASTERN WEST VIRGINIA PANHANDLE

CITY           SKY/WX    TMP DP  RH WIND       PRES   REMARKS
MARTINSBURG    CLEAR     37  16  42 CALM      30.23F
PETERSBURG*    PTCLDY    53  16  23 S10       30.20F

$$

VAZ036>039-050-230100-
CENTRAL FOOTHILLS

CITY           SKY/WX    TMP DP  RH WIND       PRES   REMARKS
CHARLOTTESVILL CLEAR     39  18  42 S8        30.29F
CULPEPER*      CLEAR     43  16  33 S5        30.29F
ORANGE*        CLEAR     41  18  38 S6        30.32F
GORDONSVILLE*  FAIR      38  18  44 W3        30.30F
WARRENTON*     FAIR      44  23  44 S8        30.28F

$$

VAZ055>057-230100-
NORTH AND CENTRAL PIEDMONT

CITY           SKY/WX    TMP DP  RH WIND       PRES   REMARKS
FREDERICKSBRG* CLEAR     45  18  33 S6        30.31F
STAFFORD*      CLEAR     42  12  29 CALM      30.35F

$$

NCZ024-NYZ072-PAZ021-071-VAZ022-071-230100-
OTHER REGIONAL OBSERVATIONS

CITY           SKY/WX    TMP DP  RH WIND       PRES   REMARKS
NEW YORK CITY  MOCLDY    43  17  35 SW7       30.25F
PHILADELPHIA   CLOUDY    44  21  40 SW12      30.31S
PITTSBURGH     CLOUDY    45  32  60 S7        30.13F
ROANOKE        PTCLDY    40  18  41 SE8       30.32S
RICHMOND       MOCLDY    42  16  34 CALM      30.34F
RALEIGH        PTCLDY    40  17  39 CALM      30.36F

$$

ANZ530>537-230100-
MARINE OBSERVATIONS

STATION/POSITION TIME  TEMP    WIND        PRES
                       AIR SEA DIR/SP/G
                 (UTC) (F)     (DEG/KT/KT) (MB)
THOMAS PT LIGHT  0000   46 47  200/ 16/ 18 1027.4F
BALT KEY BRIDGE  0000   45     180/  6/  7 1025.9R
COVE POINT       0000   45     200/ 10/ 12 1026.8S
LEWISETTA        0000   42 43  210/  7/  8 1027.1F
SOLOMONS ISLAND  0000      48                N/A
PINEY POINT      0000          210/  6/  8   N/A

$$




USA.gov is the U.S. government's official web portal to all federal, state and local government web resources and services.